GW5170 Weather Reports


Display with metric or nautical units.
time (UTC)temp
F
wind
direction
speed
MPH
gust
MPH
rain 1hr
in
rain 24hr
in
rain mn
in
humidity
%
barometer
mb
20260505001847 71 313 14.0 16.0 0.00 0.00 0.00 32 1000.6
20260505001344 72 293 9.0 11.0 0.00 0.00 0.00 32 1000.3
20260505000841 72 345 9.0 11.0 0.00 0.00 0.00 32 1000.3
20260505000338 73 300 14.0 19.0 0.00 0.00 0.00 33 1000.2
20260504235835 73 25 14.0 16.0 0.00 0.00 0.00 33 999.9
20260504235332 73 280 4.0 6.0 0.00 0.00 0.00 33 999.8
20260504234828 74 304 12.0 14.0 0.00 0.00 0.00 32 999.6
20260504234326 74 324 12.0 15.0 0.00 0.00 0.00 32 999.6
20260504233822 74 319 11.0 13.0 0.00 0.00 0.00 32 999.4
20260504233318 75 7 10.0 13.0 0.00 0.00 0.00 32 999.4
20260504232815 76 325 12.0 15.0 0.00 0.00 0.00 32 999.5
20260504232312 76 331 12.0 14.0 0.00 0.00 0.00 32 999.4
20260504231809 77 311 17.0 19.0 0.00 0.00 0.00 32 999.0
20260504231306 77 318 14.0 17.0 0.00 0.00 0.00 32 999.3
20260504230802 77 29 10.0 14.0 0.00 0.00 0.00 32 999.0
20260504230300 78 326 15.0 18.0 0.00 0.00 0.00 32 999.2
20260504225758 78 309 12.0 15.0 0.00 0.00 0.00 33 998.9
20260504225254 78 320 14.0 17.0 0.00 0.00 0.00 33 998.9
20260504224752 80 332 8.0 10.0 0.00 0.00 0.00 33 999.0
20260504224249 79 314 5.0 7.0 0.00 0.00 0.00 34 998.9
20260504223745 78 322 6.0 8.0 0.00 0.00 0.00 36 998.9
20260504223241 78 347 6.0 9.0 0.00 0.00 0.00 36 998.7
20260504222738 79 282 7.0 10.0 0.00 0.00 0.00 35 998.6
20260504222234 78 241 9.0 10.0 0.00 0.00 0.00 35 998.0
20260504221732 79 1 10.0 14.0 0.00 0.00 0.00 35 998.2
20260504221229 79 274 6.0 7.0 0.00 0.00 0.00 33 998.1
20260504220725 79 248 6.0 7.0 0.00 0.00 0.00 33 997.9
20260504220223 79 275 9.0 10.0 0.00 0.00 0.00 36 998.3
20260504215720 80 311 8.0 10.0 0.00 0.00 0.00 33 998.5
20260504215217 80 333 9.0 13.0 0.00 0.00 0.00 31 998.3
20260504214712 80 328 5.0 6.0 0.00 0.00 0.00 30 998.2
20260504214209 81 311 6.0 9.0 0.00 0.00 0.00 30 998.3
20260504213706 82 259 7.0 8.0 0.00 0.00 0.00 30 998.5
20260504213202 82 254 6.0 8.0 0.00 0.00 0.00 30 998.6
20260504212659 81 305 9.0 13.0 0.00 0.00 0.00 30 998.4
20260504212156 81 271 5.0 9.0 0.00 0.00 0.00 30 998.5
20260504211653 81 277 8.0 11.0 0.00 0.00 0.00 29 998.5
20260504211149 81 355 8.0 9.0 0.00 0.00 0.00 30 998.6
20260504210647 81 261 8.0 11.0 0.00 0.00 0.00 30 998.6
20260504210143 81 272 10.0 15.0 0.00 0.00 0.00 30 998.7
20260504205641 82 245 10.0 16.0 0.00 0.00 0.00 30 998.7
20260504205138 82 263 19.0 25.0 0.00 0.00 0.00 29 998.8
20260504204637 81 275 9.0 10.0 0.00 0.00 0.00 29 998.9
20260504204135 82 55 6.0 8.0 0.00 0.00 0.00 29 998.8
20260504203634 82 350 6.0 8.0 0.00 0.00 0.00 29 998.7
20260504203131 83 284 10.0 14.0 0.00 0.00 0.00 29 998.7
20260504202631 83 328 5.0 7.0 0.00 0.00 0.00 29 999.0
20260504202128 82 289 7.0 10.0 0.00 0.00 0.00 30 999.2
20260504201625 81 296 4.0 4.0 0.00 0.00 0.00 30 999.0
20260504201123 81 259 6.0 9.0 0.00 0.00 0.00 30 999.2
20260504200620 83 205 5.0 9.0 0.00 0.00 0.00 28 999.5
20260504200116 83 231 7.0 9.0 0.00 0.00 0.00 29 999.5
20260504195612 82 250 6.0 8.0 0.00 0.00 0.00 29 999.6
20260504195108 82 320 7.0 9.0 0.00 0.00 0.00 29 999.4
20260504194605 81 310 8.0 10.0 0.00 0.00 0.00 30 999.6
20260504194101 82 249 14.0 17.0 0.00 0.00 0.00 30 999.6
20260504193558 81 276 6.0 7.0 0.00 0.00 0.00 30 999.7
20260504193056 80 314 4.0 7.0 0.00 0.00 0.00 31 999.7
20260504192554 81 308 5.0 9.0 0.00 0.00 0.00 30 999.8
20260504192052 80 209 6.0 9.0 0.00 0.00 0.00 30 999.8
20260504191550 80 246 10.0 13.0 0.00 0.00 0.00 31 999.9
20260504191046 81 297 12.0 14.0 0.00 0.00 0.00 30 999.7
20260504190542 81 284 6.0 7.0 0.00 0.00 0.00 30 999.8
20260504190038 81 251 5.0 7.0 0.00 0.00 0.00 30 999.8
20260504185536 81 318 11.0 17.0 0.00 0.00 0.00 30 999.7
20260504185032 82 278 5.0 7.0 0.00 0.00 0.00 30 999.9
20260504184527 81 276 6.0 11.0 0.00 0.00 0.00 30 1000.0
20260504184023 81 156 6.0 8.0 0.00 0.00 0.00 29 1000.0
20260504183520 81 324 5.0 7.0 0.00 0.00 0.00 29 999.9
20260504183019 81 301 12.0 17.0 0.00 0.00 0.00 29 999.9
20260504182515 81 315 8.0 14.0 0.00 0.00 0.00 29 1000.1
20260504182012 81 261 6.0 10.0 0.00 0.00 0.00 29 1000.1
20260504181509 81 335 6.0 7.0 0.00 0.00 0.00 29 1000.1
20260504181008 80 261 10.0 15.0 0.00 0.00 0.00 29 1000.1
20260504180506 81 64 7.0 9.0 0.00 0.00 0.00 29 1000.1
20260504180004 80 246 5.0 9.0 0.00 0.00 0.00 29 1000.0
20260504175501 80 304 12.0 16.0 0.00 0.00 0.00 28 1000.2
20260504174958 80 54 5.0 8.0 0.00 0.00 0.00 30 1000.2
20260504174456 80 327 12.0 17.0 0.00 0.00 0.00 31 999.9
20260504173953 80 211 11.0 14.0 0.00 0.00 0.00 29 1000.2
20260504173449 79 291 11.0 15.0 0.00 0.00 0.00 30 1000.3
20260504172947 79 270 5.0 7.0 0.00 0.00 0.00 30 1000.3
20260504172443 79 251 15.0 17.0 0.00 0.00 0.00 31 1000.6
20260504171940 79 295 7.0 9.0 0.00 0.00 0.00 32 1000.5
20260504171437 79 264 8.0 9.0 0.00 0.00 0.00 33 1000.5
20260504170934 78 259 7.0 10.0 0.00 0.00 0.00 33 1000.5
20260504170430 78 239 9.0 13.0 0.00 0.00 0.00 33 1000.5
20260504160349 75 204 9.0 13.0 0.00 0.00 0.00 33 1001.4
20260504150814 71 282 5.0 7.0 0.00 0.00 0.00 37 1002.1
20260504150310 71 223 5.0 9.0 0.00 0.00 0.00 37 1002.5
20260504141240 65 210 5.0 7.0 0.00 0.00 0.00 46 1003.0
20260504140737 64 244 6.0 7.0 0.00 0.00 0.00 48 1002.8
20260504140232 63 236 4.0 4.0 0.00 0.00 0.00 49 1003.0
20260504130701 57 219 5.0 6.0 0.00 0.00 0.00 60 1003.4
20260504130157 56 241 4.0 6.0 0.00 0.00 0.00 59 1003.7
20260504120121 50 219 5.0 6.0 0.00 0.00 0.00 65 1003.7
20260504110549 47 285 1.0 1.0 0.00 0.00 0.00 65 1004.2
20260504100510 44 329 0.0 0.0 0.00 0.00 0.00 80 1004.7
20260504081903 49 263 2.0 3.0 0.00 0.00 0.00 63 1005.3
20260504081400 47 307 1.0 1.0 0.00 0.00 0.00 68 1005.3
20260504080856 48 288 1.0 2.0 0.00 0.00 0.00 65 1005.4
20260504080353 48 314 0.0 1.0 0.00 0.00 0.00 65 1005.4
20260504070320 48 328 0.0 1.0 0.00 0.00 0.00 70 1005.9
20260504060241 52 309 0.0 0.0 0.00 0.00 0.00 58 1006.8
20260504050709 54 323 0.0 1.0 0.00 0.00 0.00 57 1007.3
20260504050206 53 308 0.0 1.0 0.00 0.00 0.00 56 1007.3
20260504045703 54 329 0.0 0.0 0.00 0.01 0.01 57 1007.1
20260504045203 55 324 0.0 0.0 0.00 0.01 0.01 56 1007.1
20260504044702 56 2 0.0 0.0 0.00 0.01 0.01 54 1007.1
20260504044158 56 319 0.0 0.0 0.00 0.01 0.01 50 1007.2
20260504043655 56 325 0.0 0.0 0.00 0.01 0.01 50 1007.3
20260504043152 56 269 2.0 2.0 0.00 0.01 0.01 50 1007.3
20260504042650 56 298 1.0 1.0 0.00 0.01 0.01 50 1007.2
20260504042146 57 257 1.0 2.0 0.00 0.01 0.01 48 1007.4
20260504041642 56 272 2.0 2.0 0.00 0.01 0.01 52 1007.3
20260504041138 56 271 1.0 2.0 0.00 0.01 0.01 53 1007.1
20260504040636 57 307 0.0 1.0 0.00 0.01 0.01 52 1007.2
20260504040132 57 326 1.0 1.0 0.00 0.01 0.01 53 1007.2
20260504035629 57 317 0.0 0.0 0.00 0.01 0.01 53 1007.3
20260504035125 58 346 0.0 0.0 0.00 0.01 0.01 52 1007.3
20260504034624 59 320 0.0 0.0 0.00 0.01 0.01 50 1007.2
20260504034120 60 330 0.0 0.0 0.00 0.01 0.01 47 1007.4
20260504033618 61 319 0.0 0.0 0.00 0.01 0.01 44 1007.3
20260504033115 61 313 0.0 1.0 0.00 0.01 0.01 44 1007.4
20260504032612 61 333 1.0 1.0 0.00 0.01 0.01 46 1007.3
20260504032109 61 316 0.0 0.0 0.00 0.01 0.01 44 1007.2
20260504031606 62 313 2.0 2.0 0.00 0.01 0.01 42 1007.4
20260504031102 62 325 1.0 1.0 0.00 0.01 0.01 44 1007.4
20260504030559 63 316 0.0 0.0 0.00 0.01 0.01 41 1007.4
20260504030055 64 313 1.0 2.0 0.00 0.01 0.01 40 1007.4
20260504025553 64 315 1.0 1.0 0.00 0.01 0.01 38 1007.3
20260504025049 65 293 1.0 1.0 0.00 0.01 0.01 37 1007.4
20260504024547 65 295 1.0 1.0 0.00 0.01 0.01 37 1007.2
20260504024043 65 316 1.0 2.0 0.00 0.01 0.01 37 1007.2
20260504023540 65 297 3.0 3.0 0.00 0.01 0.01 37 1007.2
20260504023036 65 277 3.0 4.0 0.00 0.01 0.01 37 1007.1
20260504022532 66 282 3.0 3.0 0.00 0.01 0.01 37 1007.1
20260504022028 66 322 3.0 3.0 0.00 0.01 0.01 37 1007.1
20260504021526 66 304 3.0 4.0 0.00 0.01 0.01 36 1007.1
20260504021023 66 285 2.0 2.0 0.00 0.01 0.01 36 1007.0
20260504020520 66 270 4.0 6.0 0.00 0.01 0.01 36 1007.0
20260504020016 67 281 2.0 3.0 0.00 0.01 0.01 35 1006.9
20260504015513 67 311 1.0 2.0 0.00 0.01 0.01 35 1006.8
20260504015009 68 263 4.0 4.0 0.00 0.01 0.01 35 1006.6
20260504014505 68 302 2.0 3.0 0.00 0.01 0.01 34 1006.6
20260504014002 68 294 3.0 3.0 0.00 0.01 0.01 35 1006.6
20260504013500 68 259 1.0 2.0 0.00 0.01 0.01 34 1006.5
20260504012955 69 278 2.0 3.0 0.00 0.01 0.01 34 1006.6
20260504012454 69 311 2.0 3.0 0.00 0.01 0.01 33 1006.3
20260504011952 69 296 2.0 4.0 0.00 0.01 0.01 33 1006.4
20260504011448 69 298 4.0 6.0 0.00 0.01 0.01 33 1006.4
20260504010944 70 305 4.0 4.0 0.00 0.01 0.01 33 1006.4
20260504010440 70 309 2.0 2.0 0.00 0.01 0.01 32 1006.2
20260504005936 71 284 2.0 3.0 0.00 0.01 0.01 31 1006.0
20260504005433 71 277 4.0 4.0 0.00 0.01 0.01 31 1006.1
20260504004930 72 274 4.0 4.0 0.00 0.01 0.01 30 1006.2
20260504004428 72 307 3.0 4.0 0.00 0.01 0.01 30 1006.1
20260504003925 73 285 3.0 4.0 0.00 0.01 0.01 29 1006.2
20260504003421 73 294 3.0 4.0 0.00 0.01 0.01 29 1006.0
20260504002918 73 273 3.0 3.0 0.00 0.01 0.01 29 1006.1
20260504002415 74 288 2.0 2.0 0.00 0.01 0.01 29 1006.0